[[{"header":{"parameterUnit":"m.s-1","parameterCategory":1,"la1":30.2991,"la2":30.254,"lo1":-89.0895,"lo2":-89.0444,"dy":0.0017,"dx":0.0017,"nx":28,"ny":28,"refTime":"2024-06-23T09:00:00:Z","depth":0,"parameterNumber":2,"parameterNumberName":"U-component_of_WINDS"},"data":[0,0,0,0,0,0,0,0,0,0,0,0,0,0,0,0,0,0,0,0,0,0,0,0,0,0,0,0,0,0,0,0,0,0,0,0,0,0,0,0,0,0,0,0,0,0,0,0,0,0,0,0,0,0,0,0,0,0,2.4678,2.4677,0,2.4631,2.463,2.463,2.4508,2.4506,2.4503,2.4501,2.4457,2.4458,2.446,0,0,0,0,0,0,0,0,0,0,0,0,0,2.4664,2.4665,2.4678,2.4677,2.4677,2.4631,2.463,2.463,2.4509,2.4505,2.4502,2.4499,2.4457,2.4458,2.446,0,0,0,0,0,0,0,0,0,0,0,0,0,2.4649,2.4666,2.4678,2.4611,2.4604,2.4631,2.463,2.463,2.4509,2.4505,2.4501,2.4498,2.4456,2.4458,2.446,2.455,0,0,2.4466,2.4467,0,0,0,0,0,0,0,0,2.465,2.465,2.4621,2.4615,2.4608,2.4571,2.4609,2.4603,2.451,2.4546,2.45,2.4496,2.4499,2.4497,2.4497,2.4548,2.4546,2.4466,2.4467,2.4468,2.4468,0,0,0,0,0,0,0,2.4652,2.4651,2.4659,2.4621,2.4613,2.4583,2.4577,2.4608,2.4545,2.4542,2.4533,2.4529,2.4494,2.4495,2.4495,2.4545,2.4466,2.4468,2.4469,2.4469,2.4664,2.4668,0,0,0,0,0,0,2.4662,2.4653,2.4661,2.4658,2.462,2.4587,2.458,2.4587,2.4544,2.4534,2.4532,2.4524,2.4494,2.4493,2.4493,2.4592,2.4468,2.447,2.4471,2.466,2.4665,2.467,0,0,0,0,0,0,2.4662,2.4664,2.4663,2.4653,2.4651,2.4591,2.4601,2.4588,2.4589,2.4536,2.4525,2.4545,2.4491,2.449,2.4535,2.4589,2.4471,2.4472,2.4656,2.4662,2.4667,2.4795,0,0,0,0,0,0,2.4662,2.4665,2.4698,2.4655,2.4652,2.4706,2.4604,2.459,2.4592,2.458,2.4545,2.4536,2.4488,2.4533,2.4537,2.459,2.4474,2.465,2.4658,2.4666,2.4786,2.4805,2.4821,0,0,0,0,0,2.4662,2.4738,2.47,2.4702,2.4692,2.471,2.4708,2.465,2.4597,2.463,2.4596,2.4537,2.4583,2.4539,2.4543,2.4597,2.4647,2.4656,2.4665,2.4778,2.4801,2.482,0,0,0,0,0,0,2.4791,2.4731,2.4689,2.4752,2.4737,2.4689,2.4729,2.4677,2.4677,2.4666,2.4595,2.4588,2.4643,2.4624,2.4576,2.468,2.4605,2.4615,2.469,2.4711,2.4728,2.4731,2.4475,0,0,0,0,0,2.4827,2.4845,2.4792,2.4853,2.4847,2.479,2.4795,2.4751,2.4733,2.4726,2.4695,2.4681,2.4691,2.4701,2.4708,2.4782,2.4772,2.4821,2.4839,2.4853,2.4863,2.4898,2.4918,2.4699,2.4699,2.4699,0,0,2.4901,2.487,2.4887,2.4878,2.486,2.4881,2.4785,2.4812,2.4826,2.4731,2.477,2.4748,2.4726,2.4786,2.4811,2.4772,2.4921,2.4865,2.4877,2.4878,2.4909,2.493,2.4949,2.4706,2.4704,2.4703,0,0,2.5046,2.5025,2.5072,2.5056,2.503,2.4991,2.5002,2.4962,2.4942,2.498,2.4908,2.4925,2.4946,2.4933,2.4929,2.5066,2.5011,2.5071,2.5162,2.5197,2.5215,2.5229,2.5276,2.5294,2.508,2.5081,2.5081,0,2.5142,2.5169,2.5104,2.5133,2.5131,2.5043,2.509,2.5078,2.5057,2.5057,2.5014,2.5036,2.5016,2.5069,2.5102,2.5103,2.5113,2.5074,2.5217,2.5231,2.5244,2.5288,2.5306,2.5088,2.5087,2.5086,2.5086,0,2.5287,2.5307,2.5348,2.5326,2.5329,2.5368,2.5308,2.5318,2.5274,2.5239,2.5278,2.5251,2.5249,2.5259,2.5217,2.5306,2.5283,2.523,2.5153,2.5274,2.5313,2.533,2.5098,2.5096,2.5093,2.5092,0,0,2.5513,2.5452,2.5469,2.5456,2.542,2.5434,2.5469,2.5465,2.5474,2.5462,2.5488,2.5506,2.5456,2.5451,2.5407,2.5438,2.5545,2.5381,2.5379,2.5411,2.5639,2.5678,2.5699,2.5509,2.5512,2.5514,2.564,0,2.5648,2.5701,2.5641,2.5707,2.5723,2.5639,2.5668,2.5649,2.5617,2.5627,2.5592,2.5605,2.5539,2.5535,2.5562,2.5527,2.559,2.5517,2.5532,2.5533,2.5538,2.572,2.5762,2.5882,2.5655,2.5658,2.566,0,2.5813,2.5805,2.5871,2.5827,2.5832,2.586,2.585,2.586,2.5837,2.5811,2.5805,2.575,2.578,2.5706,2.5746,2.5697,2.57,2.5683,2.5686,2.5685,2.5603,2.5721,2.5919,2.5937,2.5684,2.5682,2.568,0,2.5968,2.5975,2.6014,2.6007,2.5958,2.5978,2.5959,2.5931,2.5932,2.5924,2.5923,2.592,2.5919,2.5917,2.5863,2.5814,2.5909,2.5831,2.5888,2.5889,2.5911,2.591,2.611,2.5915,2.5915,2.5915,2.5914,0,2.6124,2.6167,2.6083,2.6107,2.6153,2.6084,2.6132,2.6104,2.6079,2.6097,2.6025,2.6043,2.597,2.5981,2.5939,2.5977,2.5977,2.5957,2.5945,2.5963,2.5965,2.5962,2.5952,2.592,2.5919,2.5918,2.5917,0,2.6305,2.6251,2.6287,2.6237,2.6225,2.6261,2.6217,2.6237,2.62,2.6223,2.6224,2.6166,2.6174,2.6119,2.6119,2.609,2.6148,2.6123,2.6155,2.6147,2.6206,2.62,2.641,2.6434,2.6226,2.6228,2.623,0,2.6407,2.6438,2.639,2.6395,2.6378,2.6389,2.6388,2.6321,2.6324,2.6297,2.6321,2.6322,2.632,2.6337,2.6295,2.6293,2.6266,2.6339,2.6265,2.6281,2.6265,2.6263,2.6264,2.6355,2.6358,2.636,2.6361,0,2.6594,2.6564,2.6565,2.6556,2.6557,2.6547,2.6533,2.6542,2.6469,2.6476,2.6482,2.648,2.6477,2.6479,2.6468,2.6448,2.6393,2.6385,2.6398,2.6415,2.6432,2.6421,2.6196,2.638,2.6379,2.6377,2.6376,2.6375,2.6737,2.6759,2.6727,2.673,2.6712,2.6699,2.6715,2.6678,2.6681,2.6672,2.6633,2.6646,2.6619,2.6598,2.6584,2.6592,2.6557,2.6576,2.6581,2.6586,2.6596,2.6432,2.6591,2.659,2.659,2.6589,2.6589,0,2.6918,2.6892,2.6896,2.6876,2.6878,2.6823,2.6804,2.6809,2.6821,2.68,2.6798,2.6804,2.6805,2.6762,2.6757,2.6773,2.6747,2.6774,2.6771,2.6767,2.6629,2.6617,2.6794,2.6794,2.6794,2.6794,2.6794,2.6794,2.7012,2.7046,2.7012,2.7036,2.701,2.702,2.7013,2.7001,2.6983,2.6992,2.6992,2.6963,2.6933,2.6925,2.6923,2.6911,2.6912,2.6947,2.6926,2.6797,2.6777,2.6758,2.6747,2.6948,2.6948,2.7063,2.7064,2.7065]},{"header":{"parameterUnit":"m.s-1","parameterCategory":1,"la1":30.2991,"la2":30.254,"lo1":-89.0895,"lo2":-89.0444,"dy":0.0017,"dx":0.0017,"nx":28,"ny":28,"refTime":"2024-06-23T09:00:00:Z","depth":0,"parameterNumber":3,"parameterNumberName":"V-component_of_WINDS"},"data":[0,0,0,0,0,0,0,0,0,0,0,0,0,0,0,0,0,0,0,0,0,0,0,0,0,0,0,0,0,0,0,0,0,0,0,0,0,0,0,0,0,0,0,0,0,0,0,0,0,0,0,0,0,0,0,0,0,0,4.1888,4.189,0,4.2066,4.2068,4.207,4.2088,4.2086,4.2084,4.2082,4.2259,4.2265,4.2271,0,0,0,0,0,0,0,0,0,0,0,0,0,4.1555,4.1561,4.1887,4.189,4.1892,4.2066,4.2069,4.2071,4.2088,4.2086,4.2083,4.2081,4.2257,4.2264,4.2272,0,0,0,0,0,0,0,0,0,0,0,0,0,4.1713,4.1563,4.1887,4.1922,4.1927,4.2066,4.2069,4.2072,4.2088,4.2086,4.2083,4.208,4.2254,4.2264,4.2273,4.2388,0,0,4.2302,4.2307,0,0,0,0,0,0,0,0,4.1704,4.1725,4.1914,4.192,4.1925,4.2052,4.2016,4.2177,4.2089,4.2027,4.2082,4.2079,4.2192,4.2206,4.2246,4.2396,4.2404,4.2303,4.2309,4.2313,4.2316,0,0,0,0,0,0,0,4.1693,4.1717,4.1958,4.1917,4.1924,4.1926,4.1946,4.2047,4.2122,4.2032,4.2034,4.2055,4.2194,4.2236,4.225,4.2406,4.2303,4.2312,4.2318,4.2321,4.2659,4.2662,0,0,0,0,0,0,4.1676,4.1708,4.1952,4.1963,4.1806,4.1934,4.1956,4.2014,4.2121,4.2135,4.2057,4.2055,4.2221,4.2239,4.2256,4.2398,4.2313,4.2322,4.2328,4.2656,4.266,4.2663,0,0,0,0,0,0,4.1669,4.1698,4.1945,4.1836,4.1868,4.1943,4.2008,4.2019,4.2061,4.2141,4.2153,4.2087,4.222,4.2243,4.2355,4.2404,4.2327,4.2335,4.2652,4.2657,4.2661,4.2681,0,0,0,0,0,0,4.1659,4.1695,4.1741,4.1837,4.1874,4.2043,4.2011,4.2024,4.2079,4.2078,4.2172,4.2185,4.2219,4.2341,4.2365,4.2416,4.2343,4.2648,4.2654,4.266,4.2677,4.2686,4.2694,0,0,0,0,0,4.1648,4.1738,4.1744,4.1773,4.1933,4.2046,4.2067,4.2107,4.2083,4.2128,4.2179,4.2182,4.2395,4.2352,4.238,4.2434,4.2645,4.2652,4.2659,4.2673,4.2684,4.2694,0,0,0,0,0,0,4.1644,4.1752,4.1758,4.1884,4.1956,4.2049,4.2108,4.2118,4.2197,4.2192,4.2237,4.2258,4.2368,4.2412,4.2363,4.255,4.2517,4.253,4.2518,4.253,4.2538,4.2525,4.2351,0,0,0,0,0,4.1658,4.1743,4.1831,4.1933,4.1969,4.2032,4.2083,4.2108,4.2183,4.2213,4.2272,4.2344,4.2427,4.2481,4.2561,4.2683,4.2703,4.2734,4.2742,4.2749,4.276,4.2826,4.2841,4.2687,4.2687,4.2686,0,0,4.1687,4.1757,4.1807,4.1934,4.1993,4.2078,4.2058,4.2148,4.2211,4.2226,4.2337,4.2383,4.2465,4.2583,4.2637,4.2623,4.2807,4.2758,4.2763,4.277,4.2835,4.285,4.2863,4.2692,4.2691,4.269,0,0,4.1784,4.1846,4.1937,4.1997,4.2087,4.2128,4.215,4.2242,4.2274,4.2386,4.2399,4.2473,4.2615,4.2674,4.2722,4.2841,4.2845,4.2865,4.2911,4.2976,4.2988,4.2999,4.3041,4.3055,4.2876,4.2876,4.2876,0,4.1809,4.1939,4.1982,4.2073,4.2128,4.2148,4.224,4.2295,4.2405,4.2442,4.2425,4.2604,4.2661,4.2792,4.2821,4.2859,4.2884,4.2855,4.2983,4.2995,4.3005,4.3046,4.3061,4.2878,4.2877,4.2877,4.2877,0,4.1964,4.2054,4.2117,4.2226,4.2288,4.2378,4.2433,4.249,4.251,4.2552,4.2665,4.2734,4.2829,4.2862,4.2881,4.2996,4.2984,4.2974,4.2942,4.3021,4.306,4.3076,4.288,4.2879,4.2879,4.2878,0,0,4.2064,4.2196,4.2218,4.2268,4.2368,4.2438,4.2528,4.2624,4.2671,4.2747,4.2823,4.2943,4.2935,4.299,4.3015,4.3072,4.316,4.3055,4.3058,4.3072,4.329,4.3297,4.3314,4.3164,4.3168,4.317,4.3283,0,4.2171,4.2336,4.2378,4.2517,4.26,4.262,4.2699,4.2768,4.281,4.2885,4.293,4.3015,4.2998,4.3031,4.3088,4.3138,4.3205,4.313,4.3234,4.3237,4.3213,4.3334,4.3341,4.3445,4.3298,4.3301,4.3303,0,4.2319,4.24,4.2549,4.2639,4.2675,4.2746,4.2836,4.2908,4.2986,4.3012,4.3074,4.3094,4.3187,4.315,4.3278,4.3226,4.3271,4.3301,4.3306,4.3317,4.3275,4.3348,4.3479,4.3494,4.3327,4.3325,4.3323,0,4.2376,4.2522,4.263,4.2672,4.2779,4.2828,4.2875,4.2951,4.3005,4.3083,4.3119,4.3205,4.3253,4.3319,4.3361,4.333,4.3485,4.3452,4.3508,4.3507,4.354,4.3537,4.3679,4.3569,4.3569,4.3569,4.3568,0,4.2492,4.2582,4.2657,4.2723,4.2824,4.287,4.2967,4.3014,4.3081,4.3155,4.3177,4.3245,4.3297,4.3372,4.3405,4.3506,4.3527,4.355,4.3557,4.3548,4.3545,4.3577,4.3571,4.3573,4.3572,4.3571,4.357,0,4.2572,4.2627,4.2745,4.2838,4.2863,4.2933,4.3012,4.3076,4.3118,4.3212,4.3236,4.3302,4.3392,4.3441,4.3552,4.3575,4.3687,4.3691,4.3661,4.3665,4.3718,4.3712,4.3886,4.3911,4.3784,4.3786,4.3787,0,4.2643,4.2713,4.2813,4.2866,4.2914,4.2997,4.3054,4.3101,4.3158,4.3252,4.3304,4.3396,4.3471,4.3613,4.367,4.3755,4.3761,4.3816,4.3774,4.3762,4.3761,4.3756,4.3763,4.3823,4.3824,4.3825,4.3826,0,4.2761,4.2785,4.2866,4.2957,4.3024,4.3097,4.3169,4.321,4.3268,4.3331,4.3425,4.3483,4.3598,4.3688,4.3778,4.3824,4.3834,4.3839,4.3856,4.3847,4.3827,4.3838,4.3681,4.3835,4.3834,4.3833,4.3833,4.3832,4.2838,4.2901,4.2982,4.3072,4.3132,4.3199,4.3264,4.3315,4.3394,4.3493,4.3515,4.3613,4.3689,4.3811,4.3859,4.3935,4.3924,4.3949,4.3956,4.3961,4.3963,4.3815,4.3951,4.3951,4.3951,4.3951,4.3951,0,4.2958,4.3011,4.3093,4.3194,4.3265,4.3271,4.3351,4.3408,4.3495,4.3566,4.364,4.3747,4.3834,4.3898,4.3987,4.4035,4.4042,4.4056,4.4053,4.4063,4.3968,4.3944,4.4049,4.4049,4.4049,4.4049,4.4049,4.4049,4.3028,4.3135,4.3168,4.3304,4.3356,4.3454,4.3499,4.356,4.3617,4.3736,4.3809,4.3851,4.3919,4.4013,4.4092,4.4109,4.414,4.4154,4.4171,4.408,4.407,4.406,4.4037,4.416,4.4161,4.4259,4.426,4.4261]}]]